Time,TemperatureF,DewpointF,PressureIn,WindDirection,WindDirectionDegrees,WindSpeedMPH,WindSpeedGustMPH,Humidity,HourlyPrecipIn,Conditions,Clouds,dailyrainin,SoftwareType,DateUTC
2013-09-04 00:00:00,57.9,53.7,29.95,West,270,0.0,3.1,86,0.00,,,0.00,WUHU21623XXSP,2013-09-04 04:00:00,
2013-09-04 00:01:00,57.9,53.7,29.95,West,270,0.0,3.1,86,0.00,,,0.00,WUHU21623XXSP,2013-09-04 04:01:00,
2013-09-04 00:02:00,57.9,53.7,29.95,West,270,0.0,3.1,86,0.00,,,0.00,WUHU21623XXSP,2013-09-04 04:02:00,
2013-09-04 00:07:00,57.7,53.6,29.95,West,270,0.0,0.0,86,0.00,,,0.00,WUHU21623XXSP,2013-09-04 04:07:00,
2013-09-04 00:12:00,57.7,53.6,29.95,NW,315,0.0,0.0,86,0.00,,,0.00,WUHU21623XXSP,2013-09-04 04:12:00,
2013-09-04 00:17:00,57.7,53.6,29.95,West,270,0.0,2.5,86,0.00,,,0.00,WUHU21623XXSP,2013-09-04 04:17:00,
2013-09-04 00:22:00,57.7,53.6,29.95,West,270,0.0,2.5,86,0.00,,,0.00,WUHU21623XXSP,2013-09-04 04:22:00,
2013-09-04 00:27:00,57.6,53.4,29.95,West,270,0.0,0.0,86,0.00,,,0.00,WUHU21623XXSP,2013-09-04 04:27:00,
2013-09-04 00:32:00,57.4,53.2,29.95,West,270,0.0,0.0,86,0.00,,,0.00,WUHU21623XXSP,2013-09-04 04:32:00,
2013-09-04 00:37:00,57.4,53.2,29.95,West,270,0.0,0.0,86,0.00,,,0.00,WUHU21623XXSP,2013-09-04 04:37:00,
2013-09-04 00:42:00,57.4,53.2,29.95,West,270,0.0,1.8,86,0.00,,,0.00,WUHU21623XXSP,2013-09-04 04:42:00,
2013-09-04 00:47:00,57.4,53.2,29.95,West,270,0.0,1.8,86,0.00,,,0.00,WUHU21623XXSP,2013-09-04 04:47:00,
2013-09-04 00:52:00,57.2,53.0,29.95,West,270,0.0,0.0,86,0.00,,,0.00,WUHU21623XXSP,2013-09-04 04:52:00,
2013-09-04 00:57:00,57.0,52.8,29.95,West,270,0.0,0.0,86,0.00,,,0.00,WUHU21623XXSP,2013-09-04 04:57:00,
2013-09-04 01:02:00,57.0,52.8,29.95,West,270,0.0,0.0,86,0.00,,,0.00,WUHU21623XXSP,2013-09-04 05:02:00,
2013-09-04 01:07:00,56.8,52.7,29.95,SW,225,0.0,0.0,86,0.00,,,0.00,WUHU21623XXSP,2013-09-04 05:07:00,
2013-09-04 01:12:00,56.5,52.3,29.95,SW,225,0.0,0.0,86,0.00,,,0.00,WUHU21623XXSP,2013-09-04 05:12:00,
2013-09-04 01:17:00,56.1,51.9,29.95,SW,225,0.0,0.0,86,0.00,,,0.00,WUHU21623XXSP,2013-09-04 05:17:00,
2013-09-04 01:22:00,55.9,51.8,29.95,SW,225,0.0,0.0,86,0.00,,,0.00,WUHU21623XXSP,2013-09-04 05:22:00,
2013-09-04 01:27:00,55.9,51.8,29.95,SW,225,0.0,0.0,86,0.00,,,0.00,WUHU21623XXSP,2013-09-04 05:27:00,
2013-09-04 01:32:00,55.6,51.4,29.95,SW,225,0.0,0.0,86,0.00,,,0.00,WUHU21623XXSP,2013-09-04 05:32:00,
2013-09-04 01:37:00,55.2,51.4,29.95,SW,225,0.0,0.0,87,0.00,,,0.00,WUHU21623XXSP,2013-09-04 05:37:00,
2013-09-04 01:42:00,55.0,51.2,29.95,SW,225,0.0,0.0,87,0.00,,,0.00,WUHU21623XXSP,2013-09-04 05:42:00,
2013-09-04 01:47:00,54.9,51.0,29.95,SW,225,0.0,0.0,87,0.00,,,0.00,WUHU21623XXSP,2013-09-04 05:47:00,
2013-09-04 01:52:00,54.7,50.8,29.95,SW,225,0.0,0.0,87,0.00,,,0.00,WUHU21623XXSP,2013-09-04 05:52:00,
2013-09-04 01:57:00,54.3,50.5,29.95,SW,225,0.0,0.0,87,0.00,,,0.00,WUHU21623XXSP,2013-09-04 05:57:00,
2013-09-04 02:02:00,54.1,50.3,29.94,SW,225,0.0,0.0,87,0.00,,,0.00,WUHU21623XXSP,2013-09-04 06:02:00,
2013-09-04 02:07:00,54.3,50.8,29.95,SW,225,0.0,0.0,88,0.00,,,0.00,WUHU21623XXSP,2013-09-04 06:07:00,
2013-09-04 02:12:00,54.3,50.8,29.94,SW,225,0.0,0.0,88,0.00,,,0.00,WUHU21623XXSP,2013-09-04 06:12:00,
2013-09-04 02:17:00,54.3,50.8,29.95,SW,225,0.0,0.0,88,0.00,,,0.00,WUHU21623XXSP,2013-09-04 06:17:00,
2013-09-04 02:22:00,54.3,50.8,29.95,SW,225,0.0,0.0,88,0.00,,,0.00,WUHU21623XXSP,2013-09-04 06:22:00,
2013-09-04 02:27:00,54.1,50.6,29.95,SW,225,0.0,0.0,88,0.00,,,0.00,WUHU21623XXSP,2013-09-04 06:27:00,
2013-09-04 02:32:00,54.1,50.6,29.95,SW,225,0.0,0.0,88,0.00,,,0.00,WUHU21623XXSP,2013-09-04 06:32:00,
2013-09-04 02:36:00,54.1,50.6,29.94,SW,225,0.0,0.0,88,0.00,,,0.00,WUHU21623XXSP,2013-09-04 06:36:00,
2013-09-04 02:41:00,54.1,50.6,29.94,SW,225,0.0,0.0,88,0.00,,,0.00,WUHU21623XXSP,2013-09-04 06:41:00,
2013-09-04 02:46:00,54.1,50.6,29.94,SW,225,0.0,0.0,88,0.00,,,0.00,WUHU21623XXSP,2013-09-04 06:46:00,
2013-09-04 02:51:00,54.3,50.8,29.94,WSW,247,0.0,0.0,88,0.00,,,0.00,WUHU21623XXSP,2013-09-04 06:51:00,
2013-09-04 02:56:00,54.3,51.1,29.94,WSW,247,0.0,0.0,89,0.00,,,0.00,WUHU21623XXSP,2013-09-04 06:56:00,
2013-09-04 03:01:00,54.7,51.5,29.94,WSW,247,0.0,0.0,89,0.00,,,0.00,WUHU21623XXSP,2013-09-04 07:01:00,
2013-09-04 03:06:00,55.0,51.8,29.94,WSW,247,0.0,0.0,89,0.00,,,0.00,WUHU21623XXSP,2013-09-04 07:06:00,
2013-09-04 03:11:00,55.0,51.8,29.94,WSW,247,0.0,0.0,89,0.00,,,0.00,WUHU21623XXSP,2013-09-04 07:11:00,
2013-09-04 03:16:00,55.2,52.0,29.94,WSW,247,0.0,0.0,89,0.00,,,0.00,WUHU21623XXSP,2013-09-04 07:16:00,
2013-09-04 03:21:00,55.4,52.2,29.94,WSW,247,0.0,0.0,89,0.00,,,0.00,WUHU21623XXSP,2013-09-04 07:21:00,
2013-09-04 03:26:00,55.6,52.4,29.94,WSW,247,0.0,0.0,89,0.00,,,0.00,WUHU21623XXSP,2013-09-04 07:26:00,
2013-09-04 03:31:00,55.9,52.7,29.94,WSW,247,0.0,0.0,89,0.00,,,0.00,WUHU21623XXSP,2013-09-04 07:31:00,
2013-09-04 03:36:00,56.3,53.1,29.94,WNW,292,0.0,1.3,89,0.00,,,0.00,WUHU21623XXSP,2013-09-04 07:36:00,
2013-09-04 03:41:00,56.5,53.3,29.94,WNW,292,0.0,1.3,89,0.00,,,0.00,WUHU21623XXSP,2013-09-04 07:41:00,
2013-09-04 03:46:00,57.0,53.8,29.94,WNW,292,4.9,4.9,89,0.00,,,0.00,WUHU21623XXSP,2013-09-04 07:46:00,
2013-09-04 03:51:00,57.6,54.4,29.94,WNW,292,0.0,4.9,89,0.00,,,0.00,WUHU21623XXSP,2013-09-04 07:51:00,
2013-09-04 03:56:00,57.7,54.5,29.94,WNW,292,0.0,2.5,89,0.00,,,0.00,WUHU21623XXSP,2013-09-04 07:56:00,
2013-09-04 04:01:00,57.9,54.7,29.94,NNW,337,0.0,2.5,89,0.00,,,0.00,WUHU21623XXSP,2013-09-04 08:01:00,
2013-09-04 04:06:00,57.9,54.7,29.94,NNW,337,0.0,0.0,89,0.00,,,0.00,WUHU21623XXSP,2013-09-04 08:06:00,
2013-09-04 04:11:00,57.9,54.7,29.94,NNW,337,0.0,0.0,89,0.00,,,0.00,WUHU21623XXSP,2013-09-04 08:11:00,
2013-09-04 04:16:00,58.1,54.9,29.94,NNW,337,0.0,0.0,89,0.00,,,0.00,WUHU21623XXSP,2013-09-04 08:16:00,
2013-09-04 04:21:00,58.1,54.9,29.94,NW,315,0.0,2.0,89,0.00,,,0.00,WUHU21623XXSP,2013-09-04 08:21:00,
2013-09-04 04:26:00,58.1,54.9,29.94,NW,315,0.0,2.0,89,0.00,,,0.00,WUHU21623XXSP,2013-09-04 08:26:00,
2013-09-04 04:31:00,58.3,55.1,29.95,NW,315,0.0,0.0,89,0.00,,,0.00,WUHU21623XXSP,2013-09-04 08:31:00,
2013-09-04 04:36:00,58.5,55.3,29.95,NW,315,0.0,0.0,89,0.00,,,0.00,WUHU21623XXSP,2013-09-04 08:36:00,
2013-09-04 04:41:00,58.5,55.3,29.95,NW,315,0.0,0.0,89,0.00,,,0.00,WUHU21623XXSP,2013-09-04 08:41:00,
2013-09-04 04:46:00,58.8,55.6,29.95,WNW,292,0.0,0.0,89,0.00,,,0.00,WUHU21623XXSP,2013-09-04 08:46:00,
2013-09-04 04:51:00,58.8,55.6,29.95,West,270,0.0,0.0,89,0.00,,,0.00,WUHU21623XXSP,2013-09-04 08:51:00,
2013-09-04 04:56:00,58.8,55.3,29.95,WNW,292,0.0,6.0,88,0.00,,,0.00,WUHU21623XXSP,2013-09-04 08:56:00,
2013-09-04 05:01:00,59.2,55.7,29.95,WNW,292,0.0,6.0,88,0.00,,,0.00,WUHU21623XXSP,2013-09-04 09:01:00,
2013-09-04 05:06:00,59.7,56.2,29.95,West,270,0.0,5.1,88,0.00,,,0.00,WUHU21623XXSP,2013-09-04 09:06:00,
2013-09-04 05:11:00,59.9,56.4,29.95,WNW,292,0.0,5.1,88,0.00,,,0.00,WUHU21623XXSP,2013-09-04 09:11:00,
2013-09-04 05:16:00,60.1,56.2,29.95,West,270,0.0,6.0,87,0.00,,,0.00,WUHU21623XXSP,2013-09-04 09:16:00,
2013-09-04 05:21:00,60.4,56.6,29.95,WNW,292,0.0,6.0,87,0.00,,,0.00,WUHU21623XXSP,2013-09-04 09:21:00,
2013-09-04 05:26:00,60.4,56.6,29.95,WNW,292,0.0,4.7,87,0.00,,,0.00,WUHU21623XXSP,2013-09-04 09:26:00,
2013-09-04 05:31:00,60.3,56.4,29.96,WNW,292,0.0,0.0,87,0.00,,,0.00,WUHU21623XXSP,2013-09-04 09:31:00,
2013-09-04 05:36:00,60.1,56.2,29.95,WNW,292,0.0,0.0,87,0.00,,,0.00,WUHU21623XXSP,2013-09-04 09:36:00,
2013-09-04 05:41:00,59.7,55.9,29.96,WNW,292,0.0,0.0,87,0.00,,,0.00,WUHU21623XXSP,2013-09-04 09:41:00,
2013-09-04 05:46:00,59.5,55.7,29.96,WNW,292,0.0,0.0,87,0.00,,,0.00,WUHU21623XXSP,2013-09-04 09:46:00,
2013-09-04 05:51:00,59.2,55.3,29.96,WNW,292,0.0,0.0,87,0.00,,,0.00,WUHU21623XXSP,2013-09-04 09:51:00,
2013-09-04 05:56:00,59.0,55.1,29.96,WNW,292,0.0,2.5,87,0.00,,,0.00,WUHU21623XXSP,2013-09-04 09:56:00,
2013-09-04 06:01:00,58.8,55.0,29.97,WNW,292,0.0,2.5,87,0.00,,,0.00,WUHU21623XXSP,2013-09-04 10:01:00,
2013-09-04 06:06:00,58.8,55.0,29.96,WNW,292,0.0,0.0,87,0.00,,,0.00,WUHU21623XXSP,2013-09-04 10:06:00,
2013-09-04 06:11:00,58.8,55.0,29.96,WNW,292,0.0,0.0,87,0.00,,,0.00,WUHU21623XXSP,2013-09-04 10:11:00,
2013-09-04 06:16:00,58.8,55.0,29.97,WNW,292,0.0,4.3,87,0.00,,,0.00,WUHU21623XXSP,2013-09-04 10:16:00,
2013-09-04 06:21:00,58.8,55.0,29.97,WNW,292,0.0,4.3,87,0.00,,,0.00,WUHU21623XXSP,2013-09-04 10:21:00,
2013-09-04 06:26:00,58.8,55.0,29.97,WNW,292,0.0,0.0,87,0.00,,,0.00,WUHU21623XXSP,2013-09-04 10:26:00,
2013-09-04 06:31:00,58.8,55.0,29.97,WNW,292,0.0,0.0,87,0.00,,,0.00,WUHU21623XXSP,2013-09-04 10:31:00,
2013-09-04 06:36:00,58.6,55.1,29.97,WNW,292,0.0,0.0,88,0.00,,,0.00,WUHU21623XXSP,2013-09-04 10:36:00,
2013-09-04 06:41:00,57.9,54.4,29.97,WNW,292,0.0,0.0,88,0.00,,,0.00,WUHU21623XXSP,2013-09-04 10:41:00,
2013-09-04 06:46:00,57.7,54.2,29.97,WNW,292,0.0,0.0,88,0.00,,,0.00,WUHU21623XXSP,2013-09-04 10:46:00,
2013-09-04 06:51:00,57.4,53.9,29.97,WNW,292,0.0,0.0,88,0.00,,,0.00,WUHU21623XXSP,2013-09-04 10:51:00,
2013-09-04 06:56:00,57.0,53.5,29.97,WNW,292,0.0,0.0,88,0.00,,,0.00,WUHU21623XXSP,2013-09-04 10:56:00,
2013-09-04 07:01:00,56.8,53.3,29.97,WNW,292,0.0,0.0,88,0.00,,,0.00,WUHU21623XXSP,2013-09-04 11:01:00,
2013-09-04 07:06:00,56.7,53.1,29.97,WNW,292,0.0,0.0,88,0.00,,,0.00,WUHU21623XXSP,2013-09-04 11:06:00,
2013-09-04 07:11:00,56.8,53.6,29.97,WNW,292,0.0,0.0,89,0.00,,,0.00,WUHU21623XXSP,2013-09-04 11:11:00,
2013-09-04 07:16:00,57.0,53.8,29.98,WNW,292,0.0,0.0,89,0.00,,,0.00,WUHU21623XXSP,2013-09-04 11:16:00,
2013-09-04 07:21:00,57.4,54.5,29.97,WNW,292,0.0,0.0,90,0.00,,,0.00,WUHU21623XXSP,2013-09-04 11:21:00,
2013-09-04 07:26:00,58.3,55.4,29.97,WNW,292,0.0,0.0,90,0.00,,,0.00,WUHU21623XXSP,2013-09-04 11:26:00,
2013-09-04 07:31:00,58.8,55.9,29.98,WNW,292,0.0,0.0,90,0.00,,,0.00,WUHU21623XXSP,2013-09-04 11:31:00,
2013-09-04 07:36:00,59.5,56.9,29.97,WNW,292,0.0,0.0,91,0.00,,,0.00,WUHU21623XXSP,2013-09-04 11:36:00,
2013-09-04 07:41:00,60.4,57.6,29.97,SW,225,0.0,3.6,90,0.00,,,0.00,WUHU21623XXSP,2013-09-04 11:41:00,
2013-09-04 07:46:00,61.0,58.1,29.97,SW,225,0.0,3.6,90,0.00,,,0.00,WUHU21623XXSP,2013-09-04 11:46:00,
2013-09-04 07:51:00,61.5,58.3,29.97,SW,225,0.0,3.6,89,0.00,,,0.00,WUHU21623XXSP,2013-09-04 11:51:00,
2013-09-04 07:56:00,62.2,58.7,29.97,SW,225,0.0,3.6,88,0.00,,,0.00,WUHU21623XXSP,2013-09-04 11:56:00,
2013-09-04 08:01:00,62.4,58.5,29.97,SW,225,0.0,3.1,87,0.00,,,0.00,WUHU21623XXSP,2013-09-04 12:01:00,
2013-09-04 08:06:00,63.1,58.7,29.97,SW,225,0.0,6.0,86,0.00,,,0.00,WUHU21623XXSP,2013-09-04 12:06:00,
2013-09-04 08:11:00,63.3,58.7,29.97,WSW,247,0.0,6.0,85,0.00,,,0.00,WUHU21623XXSP,2013-09-04 12:11:00,
2013-09-04 08:16:00,63.7,58.7,29.98,WSW,247,0.0,5.4,84,0.00,,,0.00,WUHU21623XXSP,2013-09-04 12:16:00,
2013-09-04 08:21:00,64.2,58.9,29.98,West,270,0.0,5.4,83,0.00,,,0.00,WUHU21623XXSP,2013-09-04 12:21:00,
2013-09-04 08:26:00,64.6,59.3,29.98,West,270,0.0,2.9,83,0.00,,,0.00,WUHU21623XXSP,2013-09-04 12:26:00,
2013-09-04 08:31:00,65.1,59.5,29.98,West,270,0.0,2.7,82,0.00,,,0.00,WUHU21623XXSP,2013-09-04 12:31:00,
2013-09-04 08:36:00,65.8,59.9,29.98,WNW,292,0.0,2.9,81,0.00,,,0.00,WUHU21623XXSP,2013-09-04 12:36:00,
2013-09-04 08:41:00,66.0,60.0,29.98,West,270,0.0,4.9,81,0.00,,,0.00,WUHU21623XXSP,2013-09-04 12:41:00,
2013-09-04 08:46:00,66.4,60.1,29.98,WNW,292,0.0,4.9,80,0.00,,,0.00,WUHU21623XXSP,2013-09-04 12:46:00,
2013-09-04 08:51:00,66.7,59.7,29.98,West,270,0.0,7.4,78,0.00,,,0.00,WUHU21623XXSP,2013-09-04 12:51:00,
2013-09-04 08:56:00,67.1,60.4,29.98,NW,315,6.5,7.4,79,0.00,,,0.00,WUHU21623XXSP,2013-09-04 12:56:00,
2013-09-04 09:01:00,67.6,60.2,29.98,West,270,0.0,6.5,77,0.00,,,0.00,WUHU21623XXSP,2013-09-04 13:01:00,
2013-09-04 09:06:00,67.8,60.0,29.99,NNW,337,0.0,4.9,76,0.00,,,0.00,WUHU21623XXSP,2013-09-04 13:06:00,
2013-09-04 09:11:00,68.2,60.4,29.99,West,270,0.0,4.7,76,0.00,,,0.00,WUHU21623XXSP,2013-09-04 13:11:00,
2013-09-04 09:16:00,68.7,60.5,29.99,West,270,0.0,4.7,75,0.00,,,0.00,WUHU21623XXSP,2013-09-04 13:16:00,
2013-09-04 09:20:00,68.9,60.2,29.99,West,270,3.8,5.8,74,0.00,,,0.00,WUHU21623XXSP,2013-09-04 13:20:00,
2013-09-04 09:25:00,69.3,59.8,29.99,WSW,247,2.7,9.8,72,0.00,,,0.00,WUHU21623XXSP,2013-09-04 13:25:00,
2013-09-04 09:30:00,69.4,60.0,29.99,West,270,6.7,9.8,72,0.00,,,0.00,WUHU21623XXSP,2013-09-04 13:30:00,
2013-09-04 09:35:00,69.6,59.8,29.99,SW,225,2.2,7.6,71,0.00,,,0.00,WUHU21623XXSP,2013-09-04 13:35:00,
2013-09-04 09:40:00,70.0,60.1,29.99,West,270,0.0,9.2,71,0.00,,,0.00,WUHU21623XXSP,2013-09-04 13:40:00,
2013-09-04 09:45:00,70.5,60.3,29.98,WSW,247,0.0,11.0,70,0.00,,,0.00,WUHU21623XXSP,2013-09-04 13:45:00,
2013-09-04 09:50:00,70.9,60.2,29.98,SW,225,9.4,12.5,69,0.00,,,0.00,WUHU21623XXSP,2013-09-04 13:50:00,
2013-09-04 09:55:00,70.7,58.7,29.98,SW,225,4.5,12.5,66,0.00,,,0.00,WUHU21623XXSP,2013-09-04 13:55:00,
2013-09-04 10:00:00,70.5,58.6,29.98,SW,225,8.9,12.3,66,0.00,,,0.00,WUHU21623XXSP,2013-09-04 14:00:00,
2013-09-04 10:05:00,70.5,58.2,29.98,SSW,202,5.6,12.3,65,0.00,,,0.00,WUHU21623XXSP,2013-09-04 14:05:00,
2013-09-04 10:10:00,70.9,58.1,29.98,WSW,247,6.5,11.6,64,0.00,,,0.00,WUHU21623XXSP,2013-09-04 14:10:00,
2013-09-04 10:15:00,71.2,58.0,29.98,West,270,3.4,13.6,63,0.00,,,0.00,WUHU21623XXSP,2013-09-04 14:15:00,
2013-09-04 10:20:00,71.4,57.7,29.98,SSW,202,0.2,13.6,62,0.00,,,0.00,WUHU21623XXSP,2013-09-04 14:20:00,
2013-09-04 10:25:00,71.8,57.6,29.98,WSW,247,2.0,9.8,61,0.00,,,0.00,WUHU21623XXSP,2013-09-04 14:25:00,
2013-09-04 10:30:00,72.0,57.3,29.98,WSW,247,0.0,10.7,60,0.00,,,0.00,WUHU21623XXSP,2013-09-04 14:30:00,
2013-09-04 10:35:00,71.8,56.7,29.99,SW,225,6.3,11.6,59,0.00,,,0.00,WUHU21623XXSP,2013-09-04 14:35:00,
2013-09-04 10:40:00,72.1,57.0,29.99,WNW,292,8.7,12.1,59,0.00,,,0.00,WUHU21623XXSP,2013-09-04 14:40:00,
2013-09-04 10:45:00,72.0,55.3,29.99,West,270,0.0,12.1,56,0.00,,,0.00,WUHU21623XXSP,2013-09-04 14:45:00,
2013-09-04 10:50:00,72.1,56.0,29.99,WNW,292,1.8,11.0,57,0.00,,,0.00,WUHU21623XXSP,2013-09-04 14:50:00,
2013-09-04 10:55:00,72.3,55.1,29.98,SW,225,7.2,11.2,55,0.00,,,0.00,WUHU21623XXSP,2013-09-04 14:55:00,
2013-09-04 11:00:00,72.5,55.8,29.98,West,270,9.2,11.2,56,0.00,,,0.00,WUHU21623XXSP,2013-09-04 15:00:00,
2013-09-04 11:05:00,72.3,54.1,29.98,West,270,0.0,17.4,53,0.00,,,0.00,WUHU21623XXSP,2013-09-04 15:05:00,
2013-09-04 11:10:00,72.9,54.6,29.98,West,270,6.3,17.4,53,0.00,,,0.00,WUHU21623XXSP,2013-09-04 15:10:00,
2013-09-04 11:15:00,72.7,52.4,29.98,WNW,292,6.3,13.4,49,0.00,,,0.00,WUHU21623XXSP,2013-09-04 15:15:00,
2013-09-04 11:20:00,73.4,53.9,29.98,WNW,292,5.6,13.4,51,0.00,,,0.00,WUHU21623XXSP,2013-09-04 15:20:00,
2013-09-04 11:25:00,73.4,53.6,29.97,WNW,292,3.4,11.9,50,0.00,,,0.00,WUHU21623XXSP,2013-09-04 15:25:00,
2013-09-04 11:30:00,73.6,53.2,29.98,WNW,292,15.4,15.4,49,0.00,,,0.00,WUHU21623XXSP,2013-09-04 15:30:00,
2013-09-04 11:35:00,73.9,53.5,29.97,WSW,247,8.7,15.4,49,0.00,,,0.00,WUHU21623XXSP,2013-09-04 15:35:00,
2013-09-04 11:40:00,73.9,52.5,29.97,WSW,247,4.3,13.9,47,0.00,,,0.00,WUHU21623XXSP,2013-09-04 15:40:00,
2013-09-04 11:45:00,74.1,53.1,29.97,West,270,7.4,13.9,48,0.00,,,0.00,WUHU21623XXSP,2013-09-04 15:45:00,
2013-09-04 11:50:00,74.1,51.3,29.97,SW,225,3.4,15.4,45,0.00,,,0.00,WUHU21623XXSP,2013-09-04 15:50:00,
2013-09-04 11:55:00,74.3,51.5,29.97,West,270,2.7,15.4,45,0.00,,,0.00,WUHU21623XXSP,2013-09-04 15:55:00,
2013-09-04 12:00:00,74.5,51.0,29.97,West,270,3.6,12.5,45,0.00,,,0.00,WUHU21623XXSP,2013-09-04 16:00:00,
2013-09-04 12:05:00,74.8,51.4,29.97,WNW,292,4.5,14.8,44,0.00,,,0.00,WUHU21623XXSP,2013-09-04 16:05:00,
2013-09-04 12:10:00,74.8,51.4,29.97,SW,225,9.2,14.8,44,0.00,,,0.00,WUHU21623XXSP,2013-09-04 16:10:00,
2013-09-04 12:15:00,75.0,52.2,29.97,North,0,9.2,12.5,45,0.00,,,0.00,WUHU21623XXSP,2013-09-04 16:15:00,
2013-09-04 12:20:00,75.0,52.8,29.97,West,270,0.0,13.6,46,0.00,,,0.00,WUHU21623XXSP,2013-09-04 16:20:00,
2013-09-04 12:25:00,75.0,52.2,29.97,West,270,4.3,13.6,45,0.00,,,0.00,WUHU21623XXSP,2013-09-04 16:25:00,
2013-09-04 12:30:00,75.0,50.9,29.97,West,270,3.4,17.9,43,0.00,,,0.00,WUHU21623XXSP,2013-09-04 16:30:00,
2013-09-04 12:35:00,74.8,52.0,29.97,WSW,247,1.6,17.9,45,0.00,,,0.00,WUHU21623XXSP,2013-09-04 16:35:00,
2013-09-04 12:40:00,75.4,53.1,29.97,WNW,292,4.5,11.4,46,0.00,,,0.00,WUHU21623XXSP,2013-09-04 16:40:00,
2013-09-04 12:45:00,75.2,51.7,29.97,WSW,247,17.0,17.0,44,0.00,,,0.00,WUHU21623XXSP,2013-09-04 16:45:00,
2013-09-04 12:50:00,75.4,52.5,29.97,West,270,2.0,17.0,45,0.00,,,0.00,WUHU21623XXSP,2013-09-04 16:50:00,
2013-09-04 12:55:00,75.6,53.3,29.97,West,270,17.2,17.2,46,0.00,,,0.00,WUHU21623XXSP,2013-09-04 16:55:00,
2013-09-04 13:00:00,75.6,53.3,29.97,West,270,2.9,17.2,46,0.00,,,0.00,WUHU21623XXSP,2013-09-04 17:00:00,
2013-09-04 13:05:00,75.6,53.3,29.97,WSW,247,10.7,17.0,46,0.00,,,0.00,WUHU21623XXSP,2013-09-04 17:05:00,
2013-09-04 13:10:00,75.6,53.9,29.97,West,270,0.0,15.4,47,0.00,,,0.00,WUHU21623XXSP,2013-09-04 17:10:00,
2013-09-04 13:15:00,75.9,55.4,29.97,WSW,247,8.7,12.3,49,0.00,,,0.00,WUHU21623XXSP,2013-09-04 17:15:00,
2013-09-04 13:20:00,75.9,54.2,29.97,WNW,292,2.5,11.0,47,0.00,,,0.00,WUHU21623XXSP,2013-09-04 17:20:00,
2013-09-04 13:25:00,76.3,55.8,29.97,West,270,3.8,11.9,49,0.00,,,0.00,WUHU21623XXSP,2013-09-04 17:25:00,
2013-09-04 13:30:00,76.8,57.4,29.97,WSW,247,12.8,15.9,51,0.00,,,0.00,WUHU21623XXSP,2013-09-04 17:30:00,
2013-09-04 13:35:00,77.0,57.5,29.97,West,270,3.6,15.9,51,0.00,,,0.00,WUHU21623XXSP,2013-09-04 17:35:00,
2013-09-04 13:40:00,76.8,56.2,29.97,WSW,247,11.6,15.0,49,0.00,,,0.00,WUHU21623XXSP,2013-09-04 17:40:00,
2013-09-04 13:45:00,76.6,56.7,29.97,SW,225,11.2,15.0,50,0.00,,,0.00,WUHU21623XXSP,2013-09-04 17:45:00,
2013-09-04 13:50:00,76.6,57.2,29.97,SW,225,10.5,13.4,51,0.00,,,0.00,WUHU21623XXSP,2013-09-04 17:50:00,
2013-09-04 13:55:00,76.6,57.2,29.97,WNW,292,7.6,17.9,51,0.00,,,0.00,WUHU21623XXSP,2013-09-04 17:55:00,
2013-09-04 14:00:00,76.6,57.7,29.97,WNW,292,5.1,17.9,52,0.00,,,0.00,WUHU21623XXSP,2013-09-04 18:00:00,
2013-09-04 14:05:00,76.6,58.2,29.97,WSW,247,4.3,17.9,53,0.00,,,0.00,WUHU21623XXSP,2013-09-04 18:05:00,
2013-09-04 14:10:00,76.8,58.4,29.97,WNW,292,3.6,14.1,53,0.00,,,0.00,WUHU21623XXSP,2013-09-04 18:10:00,
2013-09-04 14:15:00,76.6,58.7,29.97,SSW,202,8.9,15.9,54,0.00,,,0.00,WUHU21623XXSP,2013-09-04 18:15:00,
2013-09-04 14:20:00,76.6,59.2,29.97,WNW,292,3.4,15.9,55,0.00,,,0.00,WUHU21623XXSP,2013-09-04 18:20:00,
2013-09-04 14:25:00,76.8,58.9,29.97,WNW,292,3.4,18.1,54,0.00,,,0.00,WUHU21623XXSP,2013-09-04 18:25:00,
2013-09-04 14:30:00,76.8,59.4,29.97,WSW,247,8.9,18.1,55,0.00,,,0.00,WUHU21623XXSP,2013-09-04 18:30:00,
2013-09-04 14:35:00,76.8,59.4,29.97,WSW,247,1.1,19.2,55,0.00,,,0.00,WUHU21623XXSP,2013-09-04 18:35:00,
2013-09-04 14:40:00,77.0,59.5,29.97,West,270,20.4,22.8,55,0.00,,,0.00,WUHU21623XXSP,2013-09-04 18:40:00,
2013-09-04 14:45:00,76.8,59.9,29.96,WNW,292,0.0,24.8,56,0.00,,,0.00,WUHU21623XXSP,2013-09-04 18:45:00,
2013-09-04 14:50:00,76.8,60.4,29.96,SW,225,8.9,24.8,57,0.00,,,0.00,WUHU21623XXSP,2013-09-04 18:50:00,
2013-09-04 14:55:00,77.2,60.2,29.96,SW,225,10.7,22.6,56,0.00,,,0.00,WUHU21623XXSP,2013-09-04 18:55:00,
2013-09-04 15:00:00,76.6,60.7,29.96,SSW,202,10.1,24.2,58,0.00,,,0.00,WUHU21623XXSP,2013-09-04 19:00:00,
2013-09-04 15:05:00,76.3,60.4,29.96,SW,225,10.7,24.2,58,0.00,,,0.00,WUHU21623XXSP,2013-09-04 19:05:00,
2013-09-04 15:10:00,76.3,60.4,29.96,WSW,247,15.7,21.5,58,0.00,,,0.00,WUHU21623XXSP,2013-09-04 19:10:00,
2013-09-04 15:15:00,75.9,60.1,29.96,SW,225,3.6,32.0,58,0.00,,,0.00,WUHU21623XXSP,2013-09-04 19:15:00,
2013-09-04 15:20:00,76.6,60.7,29.96,SW,225,11.9,32.0,58,0.00,,,0.00,WUHU21623XXSP,2013-09-04 19:20:00,
2013-09-04 15:25:00,76.3,59.9,29.97,WSW,247,7.8,27.7,57,0.00,,,0.00,WUHU21623XXSP,2013-09-04 19:25:00,
2013-09-04 15:30:00,75.9,59.6,29.96,WSW,247,11.0,27.7,57,0.00,,,0.00,WUHU21623XXSP,2013-09-04 19:30:00,
2013-09-04 15:35:00,75.9,59.6,29.96,SW,225,14.3,23.3,57,0.00,,,0.00,WUHU21623XXSP,2013-09-04 19:35:00,
2013-09-04 15:40:00,76.1,59.7,29.97,WSW,247,11.6,23.3,57,0.00,,,0.00,WUHU21623XXSP,2013-09-04 19:40:00,
2013-09-04 15:45:00,75.9,59.6,29.96,SW,225,8.5,19.7,57,0.00,,,0.00,WUHU21623XXSP,2013-09-04 19:45:00,
2013-09-04 15:50:00,76.1,59.7,29.96,WSW,247,13.6,21.7,57,0.00,,,0.00,WUHU21623XXSP,2013-09-04 19:50:00,
2013-09-04 15:55:00,76.3,60.4,29.97,SSW,202,12.5,21.7,58,0.00,,,0.00,WUHU21623XXSP,2013-09-04 19:55:00,
2013-09-04 16:00:00,76.1,60.2,29.97,WSW,247,14.3,20.4,58,0.00,,,0.00,WUHU21623XXSP,2013-09-04 20:00:00,
2013-09-04 16:05:00,75.9,60.1,29.97,SW,225,6.5,21.7,58,0.00,,,0.00,WUHU21623XXSP,2013-09-04 20:05:00,
2013-09-04 16:10:00,75.9,60.1,29.97,SW,225,10.3,21.7,58,0.00,,,0.00,WUHU21623XXSP,2013-09-04 20:10:00,
2013-09-04 16:15:00,75.7,59.4,29.97,WSW,247,3.4,21.5,57,0.00,,,0.00,WUHU21623XXSP,2013-09-04 20:15:00,
2013-09-04 16:20:00,75.7,59.9,29.97,West,270,10.7,22.1,58,0.00,,,0.00,WUHU21623XXSP,2013-09-04 20:20:00,
2013-09-04 16:25:00,75.9,60.1,29.96,West,270,3.1,22.1,58,0.00,,,0.00,WUHU21623XXSP,2013-09-04 20:25:00,
2013-09-04 16:30:00,76.3,60.4,29.96,West,270,3.8,20.4,58,0.00,,,0.00,WUHU21623XXSP,2013-09-04 20:30:00,
2013-09-04 16:35:00,75.9,60.1,29.96,SSW,202,11.4,20.4,58,0.00,,,0.00,WUHU21623XXSP,2013-09-04 20:35:00,
2013-09-04 16:40:00,75.6,59.8,29.96,SW,225,6.0,25.5,58,0.00,,,0.00,WUHU21623XXSP,2013-09-04 20:40:00,
2013-09-04 16:45:00,75.4,60.1,29.96,SSW,202,23.0,25.5,59,0.00,,,0.00,WUHU21623XXSP,2013-09-04 20:45:00,
2013-09-04 16:50:00,75.4,60.1,29.96,South,180,5.1,23.0,59,0.00,,,0.00,WUHU21623XXSP,2013-09-04 20:50:00,
2013-09-04 16:55:00,75.2,60.4,29.96,WNW,292,9.2,20.6,60,0.00,,,0.00,WUHU21623XXSP,2013-09-04 20:55:00,
2013-09-04 17:00:00,75.6,61.2,29.96,SW,225,6.7,16.6,61,0.00,,,0.00,WUHU21623XXSP,2013-09-04 21:00:00,
2013-09-04 17:05:00,75.6,60.8,29.96,SW,225,7.8,14.8,60,0.00,,,0.00,WUHU21623XXSP,2013-09-04 21:05:00,
2013-09-04 17:10:00,75.4,61.0,29.96,West,270,4.9,14.8,61,0.00,,,0.00,WUHU21623XXSP,2013-09-04 21:10:00,
2013-09-04 17:15:00,75.2,60.9,29.96,WNW,292,8.9,24.4,61,0.00,,,0.00,WUHU21623XXSP,2013-09-04 21:15:00,
2013-09-04 17:20:00,74.5,60.6,29.95,West,270,0.0,24.4,62,0.00,,,0.00,WUHU21623XXSP,2013-09-04 21:20:00,
2013-09-04 17:25:00,73.4,60.4,29.96,WSW,247,9.4,12.8,64,0.00,,,0.00,WUHU21623XXSP,2013-09-04 21:25:00,
2013-09-04 17:30:00,72.9,60.4,29.96,SW,225,8.7,12.8,65,0.00,,,0.00,WUHU21623XXSP,2013-09-04 21:30:00,
2013-09-04 17:35:00,72.1,60.6,29.96,West,270,8.1,17.0,67,0.00,,,0.00,WUHU21623XXSP,2013-09-04 21:35:00,
2013-09-04 17:40:00,72.0,60.8,29.96,West,270,0.0,17.0,68,0.00,,,0.00,WUHU21623XXSP,2013-09-04 21:40:00,
2013-09-04 17:45:00,72.0,60.8,29.96,West,270,0.0,13.0,68,0.00,,,0.00,WUHU21623XXSP,2013-09-04 21:45:00,
2013-09-04 17:50:00,71.8,61.1,29.96,WSW,247,4.7,13.0,69,0.00,,,0.00,WUHU21623XXSP,2013-09-04 21:50:00,
2013-09-04 17:55:00,71.4,60.7,29.96,WNW,292,5.8,12.5,69,0.00,,,0.00,WUHU21623XXSP,2013-09-04 21:55:00,
2013-09-04 18:00:00,71.2,61.0,29.96,West,270,6.3,17.0,70,0.00,,,0.00,WUHU21623XXSP,2013-09-04 22:00:00,
2013-09-04 18:05:00,71.2,61.0,29.96,West,270,0.0,17.0,70,0.00,,,0.00,WUHU21623XXSP,2013-09-04 22:05:00,
2013-09-04 18:10:00,71.2,61.4,29.96,SW,225,0.0,13.0,71,0.00,,,0.00,WUHU21623XXSP,2013-09-04 22:10:00,
2013-09-04 18:15:00,70.9,61.0,29.96,WSW,247,8.1,13.6,71,0.00,,,0.00,WUHU21623XXSP,2013-09-04 22:15:00,
2013-09-04 18:20:00,70.9,61.0,29.96,WSW,247,2.9,13.6,71,0.00,,,0.00,WUHU21623XXSP,2013-09-04 22:20:00,
2013-09-04 18:25:00,70.5,60.6,29.96,SSW,202,5.6,18.1,71,0.00,,,0.00,WUHU21623XXSP,2013-09-04 22:25:00,
2013-09-04 18:30:00,70.5,61.0,29.96,West,270,5.6,18.1,72,0.00,,,0.00,WUHU21623XXSP,2013-09-04 22:30:00,
2013-09-04 18:35:00,70.3,60.8,29.95,SW,225,4.5,16.3,72,0.00,,,0.00,WUHU21623XXSP,2013-09-04 22:35:00,
2013-09-04 18:40:00,70.2,61.0,29.96,West,270,2.5,16.3,73,0.00,,,0.00,WUHU21623XXSP,2013-09-04 22:40:00,
2013-09-04 18:45:00,70.0,60.9,29.95,SW,225,8.7,14.3,73,0.00,,,0.00,WUHU21623XXSP,2013-09-04 22:45:00,
2013-09-04 18:50:00,70.0,61.2,29.95,West,270,8.1,13.0,74,0.00,,,0.00,WUHU21623XXSP,2013-09-04 22:50:00,
2013-09-04 18:55:00,69.8,61.1,29.95,SSW,202,16.1,16.1,74,0.00,,,0.00,WUHU21623XXSP,2013-09-04 22:55:00,
2013-09-04 19:00:00,69.8,61.4,29.96,SW,225,8.9,16.1,75,0.00,,,0.00,WUHU21623XXSP,2013-09-04 23:00:00,
2013-09-04 19:05:00,69.6,61.3,29.96,SW,225,4.9,16.1,75,0.00,,,0.00,WUHU21623XXSP,2013-09-04 23:05:00,
2013-09-04 19:10:00,69.6,61.6,29.96,SW,225,15.4,15.4,76,0.00,,,0.00,WUHU21623XXSP,2013-09-04 23:10:00,
2013-09-04 19:15:00,69.6,62.0,29.96,West,270,0.0,15.4,77,0.00,,,0.00,WUHU21623XXSP,2013-09-04 23:15:00,
2013-09-04 19:20:00,69.6,61.6,29.96,WSW,247,1.3,13.0,76,0.00,,,0.00,WUHU21623XXSP,2013-09-04 23:20:00,
2013-09-04 19:25:00,69.6,62.0,29.97,West,270,3.8,11.0,77,0.00,,,0.00,WUHU21623XXSP,2013-09-04 23:25:00,
2013-09-04 19:30:00,69.6,62.0,29.97,West,270,5.4,12.1,77,0.00,,,0.00,WUHU21623XXSP,2013-09-04 23:30:00,
2013-09-04 19:35:00,69.4,61.9,29.97,West,270,0.0,12.1,77,0.00,,,0.00,WUHU21623XXSP,2013-09-04 23:35:00,
2013-09-04 19:40:00,69.4,62.2,29.97,West,270,0.0,10.7,78,0.00,,,0.00,WUHU21623XXSP,2013-09-04 23:40:00,
2013-09-04 19:45:00,69.1,62.3,29.97,West,270,0.0,8.9,79,0.00,,,0.00,WUHU21623XXSP,2013-09-04 23:45:00,
2013-09-04 19:50:00,68.9,62.5,29.97,WSW,247,0.0,13.0,80,0.00,,,0.00,WUHU21623XXSP,2013-09-04 23:50:00,
2013-09-04 19:55:00,68.9,62.1,29.97,West,270,0.0,13.0,79,0.00,,,0.00,WUHU21623XXSP,2013-09-04 23:55:00,
2013-09-04 20:00:00,68.7,62.3,29.97,WNW,292,0.0,7.2,80,0.00,,,0.00,WUHU21623XXSP,2013-09-05 00:00:00,
2013-09-04 20:05:00,68.7,62.3,29.97,SW,225,1.8,4.5,80,0.00,,,0.00,WUHU21623XXSP,2013-09-05 00:05:00,
2013-09-04 20:10:00,68.7,62.3,29.98,WSW,247,2.5,10.7,80,0.00,,,0.00,WUHU21623XXSP,2013-09-05 00:10:00,
2013-09-04 20:15:00,68.7,62.3,29.97,WSW,247,0.0,10.7,80,0.00,,,0.00,WUHU21623XXSP,2013-09-05 00:15:00,
2013-09-04 20:20:00,68.7,62.7,29.97,SW,225,0.0,10.3,81,0.00,,,0.00,WUHU21623XXSP,2013-09-05 00:20:00,
2013-09-04 20:25:00,68.7,62.7,29.97,West,270,0.0,10.3,81,0.00,,,0.00,WUHU21623XXSP,2013-09-05 00:25:00,
2013-09-04 20:30:00,68.7,62.7,29.97,WSW,247,0.0,8.9,81,0.00,,,0.00,WUHU21623XXSP,2013-09-05 00:30:00,
2013-09-04 20:35:00,68.5,62.5,29.97,West,270,0.0,6.3,81,0.00,,,0.00,WUHU21623XXSP,2013-09-05 00:35:00,
2013-09-04 20:40:00,68.5,62.8,29.97,West,270,0.0,2.0,82,0.00,,,0.00,WUHU21623XXSP,2013-09-05 00:40:00,
2013-09-04 20:45:00,68.4,62.7,29.97,West,270,0.0,0.0,82,0.00,,,0.00,WUHU21623XXSP,2013-09-05 00:45:00,
2013-09-04 20:50:00,68.2,62.8,29.97,West,270,0.0,5.1,83,0.00,,,0.00,WUHU21623XXSP,2013-09-05 00:50:00,
2013-09-04 20:55:00,68.4,63.0,29.97,West,270,0.0,6.9,83,0.00,,,0.00,WUHU21623XXSP,2013-09-05 00:55:00,
2013-09-04 21:00:00,68.4,63.0,29.97,WNW,292,0.0,6.9,83,0.00,,,0.00,WUHU21623XXSP,2013-09-05 01:00:00,
2013-09-04 21:05:00,68.2,62.8,29.97,West,270,0.0,0.7,83,0.00,,,0.00,WUHU21623XXSP,2013-09-05 01:05:00,
2013-09-04 21:10:00,68.4,63.0,29.97,WNW,292,0.0,0.0,83,0.00,,,0.00,WUHU21623XXSP,2013-09-05 01:10:00,
2013-09-04 21:15:00,68.2,62.8,29.97,WNW,292,0.0,0.0,83,0.00,,,0.00,WUHU21623XXSP,2013-09-05 01:15:00,
2013-09-04 21:20:00,68.2,62.8,29.98,WNW,292,0.0,3.8,83,0.00,,,0.00,WUHU21623XXSP,2013-09-05 01:20:00,
2013-09-04 21:25:00,68.0,63.0,29.98,West,270,0.0,3.8,84,0.00,,,0.00,WUHU21623XXSP,2013-09-05 01:25:00,
2013-09-04 21:30:00,67.8,62.8,29.98,West,270,0.0,2.9,84,0.00,,,0.00,WUHU21623XXSP,2013-09-05 01:30:00,
2013-09-04 21:35:00,67.8,62.8,29.98,WNW,292,0.0,4.9,84,0.00,,,0.00,WUHU21623XXSP,2013-09-05 01:35:00,
2013-09-04 21:40:00,67.8,63.1,29.97,WNW,292,0.0,4.9,85,0.00,,,0.00,WUHU21623XXSP,2013-09-05 01:40:00,
2013-09-04 21:45:00,67.8,63.1,29.98,NNW,337,5.4,5.4,85,0.00,,,0.00,WUHU21623XXSP,2013-09-05 01:45:00,
2013-09-04 21:50:00,67.6,63.0,29.98,NNW,337,0.0,5.4,85,0.00,,,0.00,WUHU21623XXSP,2013-09-05 01:50:00,
2013-09-04 21:55:00,67.3,62.9,29.98,North,0,2.7,7.6,86,0.00,,,0.00,WUHU21623XXSP,2013-09-05 01:55:00,
2013-09-04 22:00:00,66.7,62.4,29.98,NNW,337,6.7,8.3,86,0.00,,,0.00,WUHU21623XXSP,2013-09-05 02:00:00,
2013-09-04 22:05:00,66.6,62.2,29.98,NNW,337,0.0,8.3,86,0.00,,,0.00,WUHU21623XXSP,2013-09-05 02:05:00,
2013-09-04 22:10:00,66.4,62.0,29.98,North,0,0.0,8.1,86,0.00,,,0.00,WUHU21623XXSP,2013-09-05 02:10:00,
2013-09-04 22:15:00,66.2,61.8,29.98,NNW,337,0.0,6.9,86,0.00,,,0.00,WUHU21623XXSP,2013-09-05 02:15:00,
2013-09-04 22:20:00,66.0,61.7,29.98,NNW,337,0.0,6.3,86,0.00,,,0.00,WUHU21623XXSP,2013-09-05 02:20:00,
2013-09-04 22:25:00,66.0,62.0,29.98,North,0,0.0,6.3,87,0.00,,,0.00,WUHU21623XXSP,2013-09-05 02:25:00,
2013-09-04 22:30:00,65.8,61.8,29.98,North,0,1.1,4.3,87,0.02,,,0.02,WUHU21623XXSP,2013-09-05 02:30:00,
2013-09-04 22:35:00,65.5,61.8,29.99,North,0,0.0,3.6,88,0.02,,,0.02,WUHU21623XXSP,2013-09-05 02:35:00,
2013-09-04 22:40:00,65.1,61.8,29.99,North,0,0.0,5.6,89,0.04,,,0.04,WUHU21623XXSP,2013-09-05 02:40:00,
2013-09-04 22:45:00,64.9,61.7,29.98,North,0,0.0,5.6,89,0.04,,,0.04,WUHU21623XXSP,2013-09-05 02:45:00,
2013-09-04 22:50:00,64.8,61.5,29.99,North,0,0.0,0.0,89,0.04,,,0.04,WUHU21623XXSP,2013-09-05 02:50:00,
2013-09-04 22:55:00,64.6,61.7,29.99,North,0,0.0,0.0,90,0.04,,,0.04,WUHU21623XXSP,2013-09-05 02:55:00,
2013-09-04 23:00:00,64.6,61.7,29.99,North,0,0.0,0.0,90,0.04,,,0.04,WUHU21623XXSP,2013-09-05 03:00:00,
2013-09-04 23:05:00,64.6,61.7,29.98,North,0,0.0,0.0,90,0.04,,,0.04,WUHU21623XXSP,2013-09-05 03:05:00,
2013-09-04 23:10:00,64.2,61.3,29.97,North,0,0.0,0.0,90,0.04,,,0.04,WUHU21623XXSP,2013-09-05 03:10:00,
2013-09-04 23:15:00,64.2,61.3,29.98,North,0,0.0,0.0,90,0.04,,,0.04,WUHU21623XXSP,2013-09-05 03:15:00,
2013-09-04 23:20:00,64.0,61.2,29.98,North,0,0.0,0.0,90,0.04,,,0.04,WUHU21623XXSP,2013-09-05 03:20:00,
2013-09-04 23:25:00,64.0,61.2,29.98,North,0,0.0,0.0,90,0.04,,,0.04,WUHU21623XXSP,2013-09-05 03:25:00,
2013-09-04 23:30:00,64.0,61.2,29.99,North,0,0.0,0.0,90,0.02,,,0.04,WUHU21623XXSP,2013-09-05 03:30:00,
2013-09-04 23:35:00,63.7,61.1,29.98,North,0,0.0,0.0,91,0.02,,,0.04,WUHU21623XXSP,2013-09-05 03:35:00,
2013-09-04 23:40:00,63.7,61.1,29.98,North,0,0.0,0.0,91,0.00,,,0.04,WUHU21623XXSP,2013-09-05 03:40:00,
2013-09-04 23:45:00,63.5,60.9,29.99,North,0,0.0,0.0,91,0.00,,,0.04,WUHU21623XXSP,2013-09-05 03:45:00,
2013-09-04 23:50:00,63.3,60.7,29.98,North,0,0.0,0.0,91,0.00,,,0.04,WUHU21623XXSP,2013-09-05 03:50:00,
2013-09-04 23:55:00,63.3,61.0,29.98,North,0,0.0,0.0,92,0.00,,,0.04,WUHU21623XXSP,2013-09-05 03:55:00,